TimeEDT,TemperatureF,Dew PointF,Humidity,Sea Level PressureIn,VisibilityMPH,Wind Direction,Wind SpeedMPH,Gust SpeedMPH,PrecipitationIn,Events,Conditions,WindDirDegrees,DateUTC
12:54 AM,39.0,33.1,79,30.30,10.0,Calm,Calm,-,0.00,Rain,Light Rain,0,2012-10-14 04:54:00
1:54 AM,41.0,33.1,73,30.29,10.0,Variable,6.9,-,0.00,Rain,Light Rain,0,2012-10-14 05:54:00
2:54 AM,39.0,35.1,86,30.25,10.0,Calm,Calm,-,0.00,,Overcast,0,2012-10-14 06:54:00
3:54 AM,39.0,37.9,96,30.23,10.0,Calm,Calm,-,0.01,Rain,Light Rain,0,2012-10-14 07:54:00
4:54 AM,37.9,36.0,93,30.19,10.0,South,3.5,-,0.02,,Overcast,170,2012-10-14 08:54:00
5:35 AM,37.4,37.4,100,30.16,6.0,Calm,Calm,-,0.00,Rain,Light Rain,0,2012-10-14 09:35:00
5:54 AM,37.9,37.0,97,30.17,4.0,South,3.5,-,0.01,Rain,Light Rain,170,2012-10-14 09:54:00
6:21 AM,37.4,37.4,100,30.14,7.0,South,3.5,-,0.01,Rain,Light Rain,170,2012-10-14 10:21:00
6:54 AM,37.9,37.9,100,30.16,10.0,Calm,Calm,-,0.01,,Overcast,0,2012-10-14 10:54:00
7:25 AM,39.2,37.4,93,30.12,9.0,Calm,Calm,-,0.00,Rain,Light Rain,0,2012-10-14 11:25:00
7:54 AM,39.0,37.9,96,30.14,10.0,Calm,Calm,-,0.02,Rain,Light Rain,0,2012-10-14 11:54:00
8:54 AM,39.9,39.0,97,30.13,10.0,Calm,Calm,-,0.00,,Overcast,0,2012-10-14 12:54:00
9:54 AM,42.1,39.9,92,30.11,10.0,Calm,Calm,-,N/A,,Overcast,0,2012-10-14 13:54:00
10:54 AM,45.0,43.0,93,30.09,10.0,SSW,4.6,-,N/A,,Mostly Cloudy,200,2012-10-14 14:54:00
11:08 AM,46.4,42.8,87,30.07,10.0,South,4.6,-,N/A,,Mostly Cloudy,190,2012-10-14 15:08:00
11:54 AM,48.9,44.1,83,30.07,10.0,WSW,6.9,-,N/A,,Overcast,240,2012-10-14 15:54:00
12:47 PM,51.8,44.6,76,30.05,10.0,Variable,5.8,-,N/A,,Overcast,0,2012-10-14 16:47:00
12:54 PM,51.1,44.1,77,30.07,10.0,WSW,8.1,-,N/A,,Overcast,240,2012-10-14 16:54:00
1:54 PM,48.9,44.1,83,30.05,10.0,NW,3.5,-,N/A,,Mostly Cloudy,320,2012-10-14 17:54:00
2:28 PM,48.2,44.6,87,30.02,10.0,Calm,Calm,-,N/A,,Overcast,0,2012-10-14 18:28:00
2:54 PM,50.0,44.1,80,30.02,10.0,Calm,Calm,-,N/A,,Overcast,0,2012-10-14 18:54:00
3:08 PM,50.0,44.6,82,30.01,10.0,NE,3.5,-,N/A,,Overcast,50,2012-10-14 19:08:00
3:54 PM,50.0,45.0,83,30.02,10.0,NE,3.5,-,N/A,,Overcast,40,2012-10-14 19:54:00
4:54 PM,50.0,45.0,83,30.01,10.0,Calm,Calm,-,N/A,,Overcast,0,2012-10-14 20:54:00
5:54 PM,50.0,46.0,86,30.01,10.0,Calm,Calm,-,0.00,,Overcast,0,2012-10-14 21:54:00
6:41 PM,48.2,46.4,93,30.00,10.0,Calm,Calm,-,N/A,,Overcast,0,2012-10-14 22:41:00
6:54 PM,48.9,46.0,90,30.01,10.0,Calm,Calm,-,N/A,,Overcast,0,2012-10-14 22:54:00
7:54 PM,48.0,45.0,89,30.01,10.0,WNW,3.5,-,N/A,,Overcast,300,2012-10-14 23:54:00
8:17 PM,48.2,44.6,87,29.99,10.0,NW,3.5,-,N/A,,Overcast,320,2012-10-15 00:17:00
8:54 PM,48.0,45.0,89,29.99,10.0,Calm,Calm,-,N/A,,Overcast,0,2012-10-15 00:54:00
9:54 PM,46.9,45.0,93,29.98,10.0,Calm,Calm,-,N/A,,Overcast,0,2012-10-15 01:54:00
10:54 PM,46.9,45.0,93,29.96,10.0,Calm,Calm,-,N/A,,Overcast,0,2012-10-15 02:54:00
11:54 PM,48.0,45.0,89,29.94,10.0,Calm,Calm,-,N/A,,Overcast,0,2012-10-15 03:54:00